#timestamp,LO_Frequency,Hit,StdDev 
1579868835.1,286046974.1,P
1579868836.0,286046974.1,P
1579868855.8,286046974.3,P
1579868875.7,286046977.0,Y
1579868895.5,286047002.4,P
1579868915.4,286046999.8,N
1579868935.2,286047000.4,N
1579868955.0,286047000.0,N
1579868955.9,286047000.0,N
1579868975.8,286047000.1,N
1579868995.6,286047000.0,N
1579869015.4,286046999.7,N
1579869035.3,286047000.6,N
1579869055.1,286047000.0,N
1579869075.9,286046999.8,N
1579869095.7,286046999.9,N
1579869115.5,286046999.7,N
1579869135.4,286047002.2,N
1579869155.2,286047001.9,N
1579869175.0,286047003.9,N
1579869175.9,286047003.9,N
1579869195.8,286047004.4,N
1579869215.6,286047005.3,N
1579869235.5,286047007.8,N
1579869255.3,286047009.4,N
1579869275.1,286047010.0,N
1579869295.9,286047008.4,N
1579869315.7,286047008.8,N
1579869335.5,286047006.2,N
1579869355.4,286047006.4,N
1579869375.2,286047007.4,N
1579869395.0,286047006.4,N
1579869396.0,286047006.4,N
1579869415.8,286047009.2,N
1579869435.6,286047008.6,N
1579869455.5,286047008.3,N
1579869475.3,286047008.0,N
1579869495.1,286047007.9,N
1579869515.9,286047008.0,N
1579869535.7,286047008.3,N
1579869555.6,286047008.6,N
1579869575.4,286047008.1,N
1579869595.2,286047007.7,N
1579869615.1,286047008.3,N
1579869616.0,286047008.3,N
1579869635.8,286047008.1,N
1579869655.6,286047008.2,Y
1579869675.5,286047002.2,P
1579869695.3,286047004.4,N
1579869715.2,286047003.9,N
1579869735.9,286047004.0,N
1579869755.7,286047006.0,Y
1579869775.6,286047002.7,P
1579869795.4,286047000.1,N
1579869815.2,286047000.0,N
1579869835.1,286046999.8,N
1579869836.0,286046999.8,N
1579869855.8,286046999.9,N
1579869875.7,286047002.4,N
1579869895.5,286047002.6,N
1579869915.3,286047004.1,N
1579869935.2,286047002.9,N
1579869955.0,286047002.9,N
1579869955.9,286047002.9,N
1579869975.8,286047003.4,N
1579869995.6,286047005.2,Y
1579870015.4,286047003.6,P
1579870035.3,286047003.4,P
1579870055.1,286047004.3,P
1579870075.8,286046999.8,N
1579870095.7,286047002.8,N
1579870115.5,286046999.9,N
1579870135.4,286047000.9,N
1579870155.2,286047000.7,N
1579870175.0,286046998.6,N
1579870175.9,286046998.6,N
1579870195.8,286046999.3,N
1579870215.6,286046999.6,N
1579870235.5,286046997.5,N
1579870255.3,286046997.6,N
1579870275.1,286046997.3,N
1579870295.9,286046997.8,N
1579870315.7,286046997.9,N
1579870335.6,286046997.7,N
1579870355.4,286046996.8,N
1579870375.2,286046999.2,N
1579870395.1,286046999.4,N
1579870396.0,286046999.4,N
1579870415.8,286046996.8,N
1579870435.6,286046996.5,N
1579870455.5,286046997.3,N
1579870475.3,286046997.7,N
1579870495.2,286046997.1,N
1579870515.9,286046995.4,N
1579870535.7,286046998.0,N
1579870555.6,286046995.4,N
1579870575.4,286046995.7,N
1579870595.2,286046995.4,N
1579870615.1,286046995.5,N
1579870616.0,286046995.5,N
1579870635.8,286046996.2,N
1579870655.7,286046997.8,N
1579870675.5,286046997.7,N
1579870695.3,286046997.7,N
1579870715.2,286046997.7,N
1579870735.0,286046997.0,N
1579870735.9,286046997.0,N
1579870755.8,286046994.9,Y
1579870775.6,286046998.5,P
1579870795.4,286046998.8,N
